TimeCDT,TemperatureF,Dew PointF,Humidity,Sea Level PressureIn,VisibilityMPH,Wind Direction,Wind SpeedMPH,Gust SpeedMPH,PrecipitationIn,Events,Conditions,WindDirDegrees,DateUTC
12:51 AM,46.9,19.0,33,30.04,10.0,SSW,6.9,-,N/A,,Clear,210,2013-05-04 05:51:00
1:51 AM,45.0,19.9,37,30.02,10.0,SSW,9.2,-,N/A,,Clear,200,2013-05-04 06:51:00
2:51 AM,42.1,19.9,41,30.01,10.0,SW,4.6,-,N/A,,Clear,220,2013-05-04 07:51:00
3:51 AM,41.0,18.0,40,29.98,10.0,WSW,8.1,-,N/A,,Clear,240,2013-05-04 08:51:00
4:51 AM,42.1,19.0,40,29.99,10.0,SW,3.5,-,N/A,,Clear,220,2013-05-04 09:51:00
5:51 AM,46.0,21.0,37,29.99,10.0,West,8.1,-,N/A,,Clear,260,2013-05-04 10:51:00
6:51 AM,45.0,21.9,40,30.00,10.0,West,6.9,-,N/A,,Clear,260,2013-05-04 11:51:00
7:51 AM,52.0,21.9,31,30.01,10.0,WSW,6.9,-,N/A,,Clear,250,2013-05-04 12:51:00
8:51 AM,59.0,21.9,24,30.02,10.0,WSW,10.4,-,N/A,,Clear,250,2013-05-04 13:51:00
9:51 AM,66.0,21.9,19,30.02,10.0,Variable,3.5,-,N/A,,Clear,0,2013-05-04 14:51:00
10:51 AM,71.1,24.1,17,30.02,10.0,Variable,5.8,-,N/A,,Clear,0,2013-05-04 15:51:00
11:51 AM,73.0,21.9,15,30.00,10.0,NE,4.6,-,N/A,,Clear,50,2013-05-04 16:51:00
12:51 PM,75.9,19.9,12,29.99,10.0,North,8.1,-,N/A,,Clear,350,2013-05-04 17:51:00
1:51 PM,77.0,21.0,12,29.97,10.0,ENE,5.8,-,N/A,,Clear,70,2013-05-04 18:51:00
2:51 PM,78.1,19.9,11,29.95,10.0,NE,4.6,-,N/A,,Clear,40,2013-05-04 19:51:00
3:51 PM,80.1,21.0,11,29.91,10.0,Variable,3.5,-,N/A,,Clear,0,2013-05-04 20:51:00
4:51 PM,81.0,19.0,10,29.89,10.0,NNE,10.4,-,N/A,,Clear,30,2013-05-04 21:51:00
5:51 PM,81.0,19.0,10,29.88,10.0,North,11.5,-,N/A,,Clear,10,2013-05-04 22:51:00
6:51 PM,80.1,18.0,10,29.88,10.0,NNW,6.9,-,N/A,,Clear,340,2013-05-04 23:51:00
7:51 PM,77.0,21.9,13,29.88,10.0,NE,8.1,-,N/A,,Clear,50,2013-05-05 00:51:00
8:51 PM,71.1,21.0,15,29.91,10.0,ENE,5.8,-,N/A,,Clear,70,2013-05-05 01:51:00
9:51 PM,66.9,23.0,19,29.94,10.0,East,8.1,-,N/A,,Clear,80,2013-05-05 02:51:00
10:51 PM,63.0,24.1,23,29.97,10.0,East,5.8,-,N/A,,Clear,90,2013-05-05 03:51:00
11:51 PM,60.1,28.0,30,29.99,10.0,NNE,3.5,-,N/A,,Clear,20,2013-05-05 04:51:00